Погода в Клодзко

Польша     50°26′12″N   16°39′03″E
темп.,
°C
ветер,
м/с
пор.,
м/с
влажн.,
%
обл.,
%
осадки,
мм/ч
давл.,
гПа
погр.,
м
27 февраля, сб
сб2701:00+2зюз2291100 2.3 103142
04:00+1зюз229337 0.0 103127
07:00+2зсз288943 0.0 1032514
10:00+5сз477587 0.0 1034904
13:00+5ссз577591 0.1 1035905
16:00+4ссз477571 0.0 1035805
19:00+2ссз378661 0.0 1036441
22:00+2сз2684100 0.1 1037414
28 февраля, вс
вс2801:00+1з238690 0.1 103893
04:00+1зюз128598 0.0 103739
07:000зюз228895 0.0 103731
10:00+4зюз226658 0.0 1036369
13:00+8зсз245529 0.0 1035870
16:00+8зсз35630 0.0 1033701
19:00+3з12820 0.0 103425
22:00+3зсз138935 0.0 103469
1 марта, пн
пн101:00+3с249766 0.0 1035195
04:00+3ссв129796 0.0 1035100
07:00+1з119773 0.0 103622
10:00+5св117943 0.0 1036398
13:00+8всв116725 0.0 1036549
16:00+8всв11670 0.0 1034497
19:00+4в11870 0.0 103622
22:00+3ююз11900 0.0 103622
2 марта, вт
вт201:00+2юз11880 0.0 103622
04:00+2юз22880 0.0 103522
07:00+2юз22870 0.0 103523
10:00+8юз22620 0.0 1034281
13:00+12юз23460 0.0 1033617
16:00+12ююз22520 0.0 1032100
19:00+6юз23710 0.0 103227
22:00+4юз33800 0.0 103351
3 марта, ср
ср301:00+3юз23830 0.0 103243
04:00+2юз23852 0.0 103235
07:00+2юз238641 0.0 103147
10:00+8зюз246770 0.0 1031298
13:00+11зюз345346 0.0 1029617
16:00+11зюз24590 0.0 1027492
19:00+6юз22781 0.0 102726
22:00+5юз238164 0.0 102634